• Em Portugal
  • Lista de países
  • Para 7 dias
  • Temperatura da água
  • Mapas de satélite
  • Mapa do tempo
  • Widgets de tempo
  • user-avatar
    Iniciar Sessão

    Previsão horária em Jordanki

    Hoje, 19 Agosto, Domingo

    Tempo Temperatura Precipitação Vento Pressão Humidade
    00:00 +17°C° 0 mm 2 m/s 762 mmHg 81%
    01:00 +17°C° 0 mm 2 m/s 762 mmHg 83%
    02:00 +17°C° 0 mm 2 m/s 762 mmHg 84%
    03:00 +17°C° 0 mm 2 m/s 762 mmHg 86%
    04:00 +17°C° 0 mm 2 m/s 762 mmHg 87%
    05:00 +18°C° 0 mm 2 m/s 762 mmHg 84%
    06:00 +19°C° 0 mm 2 m/s 762 mmHg 81%
    07:00 +21°C° 0 mm 2 m/s 762 mmHg 78%
    08:00 +23°C° 0 mm 2 m/s 762 mmHg 69%
    09:00 +25°C° 0 mm 3 m/s 762 mmHg 60%
    10:00 +27°C° 0 mm 3 m/s 762 mmHg 51%
    11:00 +27°C° 0 mm 3 m/s 762 mmHg 48%
    12:00 +28°C° 0 mm 3 m/s 762 mmHg 45%
    13:00 +28°C° 0 mm 3 m/s 762 mmHg 43%
    14:00 +28°C° 0 mm 3 m/s 762 mmHg 43%
    15:00 +28°C° 0 mm 2 m/s 761 mmHg 44%
    16:00 +28°C° 0 mm 2 m/s 761 mmHg 45%
    17:00 +26°C° 0 mm 2 m/s 761 mmHg 52%
    18:00 +25°C° 0 mm 2 m/s 761 mmHg 60%
    19:00 +23°C° 0 mm 2 m/s 761 mmHg 67%
    20:00 +21°C° 0 mm 2 m/s 761 mmHg 70%
    21:00 +20°C° 0 mm 2 m/s 760 mmHg 74%
    22:00 +19°C° 0 mm 2 m/s 760 mmHg 77%
    23:00 +19°C° 0 mm 2 m/s 760 mmHg 75%

    Amanhã, 20 Agosto, Segunda-feira

    Tempo Temperatura Precipitação Vento Pressão Humidade
    00:00 +19°C° 0 mm 2 m/s 760 mmHg 74%
    01:00 +19°C° 0 mm 2 m/s 759 mmHg 72%
    02:00 +19°C° 0 mm 3 m/s 759 mmHg 69%
    03:00 +19°C° 0 mm 3 m/s 759 mmHg 67%
    04:00 +19°C° 0 mm 3 m/s 758 mmHg 64%
    05:00 +20°C° 0 mm 4 m/s 758 mmHg 62%
    06:00 +21°C° 0 mm 4 m/s 758 mmHg 61%
    07:00 +22°C° 0 mm 5 m/s 758 mmHg 59%
    08:00 +23°C° 0 mm 5 m/s 758 mmHg 56%
    09:00 +26°C° 0 mm 5 m/s 758 mmHg 53%
    10:00 +28°C° 0 mm 5 m/s 757 mmHg 50%
    11:00 +28°C° 0 mm 5 m/s 757 mmHg 50%
    12:00 +28°C° 0 mm 6 m/s 757 mmHg 50%
    13:00 +29°C° 0 mm 6 m/s 757 mmHg 50%
    14:00 +27°C° 0,1 mm 6 m/s 757 mmHg 56%
    15:00 +26°C° 0,1 mm 5 m/s 757 mmHg 62%
    16:00 +25°C° 0,1 mm 5 m/s 757 mmHg 68%
    17:00 +23°C° 0,1 mm 5 m/s 757 mmHg 71%
    18:00 +22°C° 0,1 mm 5 m/s 757 mmHg 74%
    19:00 +21°C° 0,1 mm 5 m/s 757 mmHg 77%
    20:00 +20°C° 0 mm 5 m/s 757 mmHg 77%
    21:00 +17°C° 0 mm 5 m/s 757 mmHg 76%
    22:00 +16°C° 0 mm 5 m/s 757 mmHg 76%
    23:00 +16°C° 0 mm 5 m/s 758 mmHg 76%

    Depois de amanhã, 21 Agosto, Terça-feira

    Tempo Temperatura Precipitação Vento Pressão Humidade
    00:00 +15°C° 0 mm 5 m/s 758 mmHg 76%
    01:00 +15°C° 0 mm 5 m/s 758 mmHg 76%
    02:00 +15°C° 0 mm 5 m/s 758 mmHg 77%
    03:00 +15°C° 0 mm 5 m/s 759 mmHg 78%
    04:00 +14°C° 0 mm 5 m/s 759 mmHg 78%
    05:00 +15°C° 0 mm 5 m/s 760 mmHg 77%
    06:00 +16°C° 0 mm 5 m/s 760 mmHg 75%
    07:00 +17°C° 0 mm 5 m/s 761 mmHg 73%
    08:00 +19°C° 0,1 mm 5 m/s 761 mmHg 68%
    09:00 +21°C° 0,1 mm 5 m/s 761 mmHg 63%
    10:00 +22°C° 0,1 mm 5 m/s 762 mmHg 59%
    11:00 +22°C° 0 mm 5 m/s 762 mmHg 56%
    12:00 +23°C° 0 mm 5 m/s 762 mmHg 53%
    13:00 +23°C° 0 mm 5 m/s 762 mmHg 50%
    14:00 +23°C° 0 mm 4 m/s 762 mmHg 51%
    15:00 +22°C° 0 mm 4 m/s 763 mmHg 52%
    16:00 +22°C° 0 mm 4 m/s 763 mmHg 52%
    17:00 +21°C° 0 mm 3 m/s 763 mmHg 59%
    18:00 +19°C° 0 mm 3 m/s 763 mmHg 65%
    19:00 +17°C° 0 mm 2 m/s 763 mmHg 71%
    20:00 +16°C° 0 mm 2 m/s 764 mmHg 73%
    21:00 +16°C° 0 mm 2 m/s 764 mmHg 76%
    22:00 +15°C° 0 mm 1 m/s 764 mmHg 78%
    23:00 +14°C° 0 mm 1 m/s 764 mmHg 79%

    22 Agosto, Quarta-feira

    Tempo Temperatura Precipitação Vento Pressão Humidade
    00:00 +14°C° 0 mm 1 m/s 764 mmHg 80%
    01:00 +14°C° 0 mm 2 m/s 764 mmHg 81%
    02:00 +14°C° 0 mm 2 m/s 764 mmHg 81%
    03:00 +13°C° 0 mm 2 m/s 764 mmHg 82%
    04:00 +13°C° 0 mm 2 m/s 764 mmHg 82%
    05:00 +14°C° 0 mm 2 m/s 765 mmHg 78%
    06:00 +16°C° 0 mm 2 m/s 765 mmHg 74%
    07:00 +17°C° 0 mm 3 m/s 765 mmHg 70%
    08:00 +19°C° 0 mm 3 m/s 765 mmHg 65%
    09:00 +20°C° 0 mm 3 m/s 765 mmHg 59%
    10:00 +22°C° 0 mm 3 m/s 765 mmHg 53%
    11:00 +24°C° 0 mm 3 m/s 764 mmHg 50%
    12:00 +25°C° 0 mm 3 m/s 764 mmHg 48%
    13:00 +26°C° 0 mm 3 m/s 763 mmHg 46%
    14:00 +26°C° 0 mm 3 m/s 763 mmHg 46%
    15:00 +27°C° 0 mm 3 m/s 763 mmHg 46%
    16:00 +27°C° 0 mm 3 m/s 762 mmHg 46%
    17:00 +25°C° 0 mm 3 m/s 762 mmHg 52%
    18:00 +24°C° 0 mm 3 m/s 762 mmHg 58%
    19:00 +21°C° 0 mm 3 m/s 761 mmHg 64%
    20:00 +20°C° 0 mm 4 m/s 761 mmHg 64%
    21:00 +20°C° 0 mm 4 m/s 761 mmHg 64%
    22:00 +19°C° 0 mm 4 m/s 761 mmHg 64%
    23:00 +19°C° 0 mm 4 m/s 761 mmHg 62%

    23 Agosto, Quinta-feira

    Tempo Temperatura Precipitação Vento Pressão Humidade
    00:00 +18°C° 0 mm 4 m/s 761 mmHg 61%
    01:00 +18°C° 0 mm 4 m/s 761 mmHg 60%
    02:00 +18°C° 0 mm 4 m/s 760 mmHg 61%
    03:00 +18°C° 0 mm 4 m/s 760 mmHg 62%
    04:00 +17°C° 0 mm 4 m/s 760 mmHg 62%
    05:00 +18°C° 0 mm 4 m/s 760 mmHg 63%
    06:00 +19°C° 0 mm 4 m/s 760 mmHg 65%
    07:00 +20°C° 0 mm 4 m/s 760 mmHg 66%
    08:00 +22°C° 0 mm 4 m/s 759 mmHg 62%
    09:00 +23°C° 0 mm 4 m/s 759 mmHg 59%
    10:00 +26°C° 0 mm 4 m/s 759 mmHg 56%
    11:00 +26°C° 0 mm 4 m/s 759 mmHg 55%
    12:00 +27°C° 0 mm 4 m/s 759 mmHg 54%
    13:00 +27°C° 0 mm 3 m/s 758 mmHg 53%
    14:00 +27°C° 0 mm 3 m/s 758 mmHg 52%
    15:00 +28°C° 0 mm 3 m/s 757 mmHg 51%
    16:00 +28°C° 0 mm 3 m/s 757 mmHg 50%
    17:00 +27°C° 0 mm 3 m/s 757 mmHg 54%
    18:00 +26°C° 0 mm 3 m/s 756 mmHg 57%
    19:00 +25°C° 0 mm 3 m/s 756 mmHg 61%
    20:00 +24°C° 0 mm 3 m/s 756 mmHg 62%
    21:00 +22°C° 0 mm 3 m/s 756 mmHg 63%
    22:00 +21°C° 0 mm 3 m/s 756 mmHg 64%
    23:00 +21°C° 0 mm 3 m/s 755 mmHg 63%

    24 Agosto, Sexta-feira

    Tempo Temperatura Precipitação Vento Pressão Humidade
    00:00 +22°C° 0 mm 4 m/s 755 mmHg 62%
    01:00 +22°C° 0 mm 4 m/s 755 mmHg 61%
    02:00 +22°C° 0 mm 4 m/s 754 mmHg 61%
    03:00 +22°C° 0 mm 4 m/s 754 mmHg 60%
    04:00 +21°C° 0 mm 4 m/s 754 mmHg 60%
    05:00 +22°C° 0 mm 4 m/s 753 mmHg 61%
    06:00 +22°C° 0 mm 5 m/s 753 mmHg 61%
    07:00 +22°C° 0 mm 5 m/s 753 mmHg 62%
    08:00 +25°C° 0,1 mm 5 m/s 752 mmHg 60%
    09:00 +26°C° 0,1 mm 5 m/s 752 mmHg 59%
    10:00 +27°C° 0,1 mm 5 m/s 752 mmHg 58%
    11:00 +29°C° 0 mm 5 m/s 751 mmHg 54%
    12:00 +30°C° 0 mm 5 m/s 751 mmHg 51%
    13:00 +32°C° 0 mm 5 m/s 750 mmHg 47%
    14:00 +30°C° 0,1 mm 4 m/s 750 mmHg 51%
    15:00 +30°C° 0,1 mm 4 m/s 750 mmHg 54%
    16:00 +29°C° 0,1 mm 4 m/s 750 mmHg 57%
    17:00 +27°C° 1,5 mm 4 m/s 750 mmHg 66%
    18:00 +25°C° 1,5 mm 5 m/s 750 mmHg 75%
    19:00 +21°C° 1,5 mm 5 m/s 750 mmHg 85%
    20:00 +20°C° 1 mm 5 m/s 751 mmHg 86%
    21:00 +19°C° 1 mm 5 m/s 751 mmHg 87%
    22:00 +17°C° 1 mm 5 m/s 752 mmHg 89%
    23:00 +17°C° 0 mm 4 m/s 752 mmHg 89%
    Mostrar mais